Beaumont, TX

7:56 AM CST on December 17, 2017 (GMT -0600)
Southeast Texas Regional

Weather History for KBPT - November, 2011

Change the Weather History Date:

Sunday, November 27, 2011

  Actual Average Record
Temperature  
Mean Temperature 48 °F 58 °F  
Max Temperature 58 °F 68 °F 84 °F (1989)
Min Temperature 38 °F 49 °F 29 °F (1956)
Degree Days  
Heating Degree Days 17 8  
Month to date heating degree days 92 135  
Since 1 July heating degree days 129 169  
Cooling Degree Days 0 1  
Month to date cooling degree days 116 60  
Year to date cooling degree days 3491 2851  
Moisture  
Dew Point 34 °F    
Average Humidity 52    
Maximum Humidity 71    
Minimum Humidity 33    
Precipitation  
Precipitation 0.02 in 0.14 in 4.23 in (1962)
Month to date precipitation 1.21 3.94  
Year to date precipitation 27.02 54.72  
Snow  
Snow 0.00 in 0.00 in 0.00 in ()
Month to date snowfall 0.0 0.0  
Since 1 July snowfall 0.0 0.0  
Since 1 September snowfall 0.0 0.0  
Snow Depth 0.00 in    
Sea Level Pressure  
Sea Level Pressure 30.14 in    
Wind  
Wind Speed 13 mph (NW)    
Max Wind Speed 25 mph    
Max Gust Speed 33 mph    
Visibility 10 miles    
Events      
T = Trace of Precipitation, MM = Missing Value Source: NWS Daily Summary

Daily Weather History Graph

Daily Weather History Graph

Search for Another Location

Airport or City:

Trip Planner

Search our weather history database for the weather conditions in past years. The results will help you decide how hot, cold, wet, or windy it might be!

Date:

Astronomy

Nov. 27, 2011 Rise Set
Actual Time 6:50 AM CST 5:16 PM CST
Civil Twilight 6:24 AM CST 5:42 PM CST
Nautical Twilight 5:55 AM CST 6:11 PM CST
Astronomical Twilight 5:26 AM CST 6:40 PM CST
Moon 9:14 AM CST (11/27) 7:56 PM CST (11/27)
Length of Visible Light 11h 17m
Length of Day
10h 25m
Waxing Crescent, 8% of the Moon is Illuminated
Nov 27
Waxing Crescent
Dec 2
First Quarter
Dec 10
Full
Dec 17
Last Quarter
Dec 24
New

Hourly Weather History & Observations

Time (CST) Temp. Windchill Dew Point Humidity Pressure Visibility Wind Dir Wind Speed Gust Speed Precip Events Conditions
12:53 AM 53.1 °F - 44.1 °F 71% 30.09 in 10.0 mi NW 13.8 mph 20.7 mph N/A   Overcast
1:41 AM 51.8 °F - 44.6 °F 76% 30.08 in 10.0 mi NW 16.1 mph 21.9 mph N/A   Mostly Cloudy
1:53 AM 52.0 °F - 43.0 °F 71% 30.08 in 10.0 mi NW 13.8 mph 24.2 mph N/A   Scattered Clouds
2:53 AM 52.0 °F - 43.0 °F 71% 30.08 in 10.0 mi NW 11.5 mph - N/A   Clear
3:53 AM 52.0 °F - 42.1 °F 69% 30.08 in 10.0 mi WNW 13.8 mph - N/A   Clear
4:53 AM 51.1 °F - 41.0 °F 68% 30.09 in 10.0 mi WNW 13.8 mph 19.6 mph N/A   Clear
5:53 AM 51.1 °F - 39.9 °F 66% 30.11 in 10.0 mi NW 12.7 mph - N/A   Mostly Cloudy
6:53 AM 51.1 °F - 39.0 °F 63% 30.13 in 10.0 mi WNW 12.7 mph - N/A   Overcast
7:53 AM 50.0 °F - 37.0 °F 61% 30.15 in 10.0 mi WNW 16.1 mph 25.3 mph N/A   Partly Cloudy
8:53 AM 51.8 °F - 33.8 °F 50% 30.16 in 10.0 mi NW 23.0 mph 28.8 mph N/A   Scattered Clouds
9:53 AM 53.1 °F - 32.0 °F 45% 30.18 in 10.0 mi WNW 19.6 mph 25.3 mph N/A   Clear
10:53 AM 54.0 °F - 28.9 °F 38% 30.18 in 10.0 mi NW 17.3 mph 27.6 mph 0.01 in   Clear
11:53 AM 55.9 °F - 30.0 °F 37% 30.16 in 10.0 mi NW 15.0 mph 25.3 mph N/A   Clear
12:53 PM 57.0 °F - 30.0 °F 36% 30.14 in 10.0 mi WNW 15.0 mph 23.0 mph N/A   Clear
1:53 PM 57.0 °F - 28.9 °F 34% 30.12 in 10.0 mi NNW 18.4 mph 24.2 mph N/A   Clear
2:53 PM 57.0 °F - 30.0 °F 36% 30.12 in 10.0 mi NW 16.1 mph 23.0 mph N/A   Clear
3:53 PM 55.0 °F - 28.9 °F 37% 30.13 in 10.0 mi NW 15.0 mph 25.3 mph N/A   Clear
4:53 PM 52.0 °F - 28.0 °F 40% 30.14 in 10.0 mi NW 12.7 mph 23.0 mph N/A   Clear
5:53 PM 48.9 °F - 28.9 °F 46% 30.17 in 10.0 mi WNW 10.4 mph - N/A   Clear
6:53 PM 46.9 °F - 28.9 °F 50% 30.19 in 10.0 mi WNW 10.4 mph - N/A   Clear
7:53 PM 45.0 °F 40.6 °F 28.9 °F 53% 30.21 in 10.0 mi NW 8.1 mph - N/A   Clear
8:53 PM 44.1 °F 40.1 °F 30.0 °F 58% 30.21 in 10.0 mi WNW 6.9 mph - N/A   Clear
9:53 PM 42.1 °F 38.4 °F 30.0 °F 62% 30.20 in 10.0 mi WNW 5.8 mph - N/A   Clear
10:53 PM 39.0 °F 36.8 °F 28.9 °F 67% 30.19 in 10.0 mi West 3.5 mph - N/A   Clear
11:53 PM 37.9 °F 33.5 °F 28.9 °F 70% 30.18 in 10.0 mi WNW 5.8 mph - N/A   Clear